Terminal Aerodrome Forecast
Issued by NWS

Home | Current Version | Previous Version | Text Only | Print | Product List | Glossary On
Versions: 1 2 3 4 5 6 7 8 9 10 11 12 13 14 15 16 17 18 19 20 21 22 23 24 25 26 27 28 29 30 31 32 33 34 35 36 37 38 39 40 41 42 43 44 45 46 47 48 49 50
000
FTUS43 KDMX 060825 AAB
TAFFOD
TAF AMD
KFOD 060825Z 0608/0706 14010KT 5SM BR OVC008
      TEMPO 0608/0610 3SM -TSRA BR SCT005 BKN015CB OVC040
     FM061000 15012KT 6SM BR SCT008 BKN070
     FM061700 17017G24KT P6SM SCT030 BKN250
     FM062200 16014KT P6SM VCSH BKN035=

USA.gov is the U.S. government's official web portal to all federal, state and local government web resources and services.